Tracking 33068 objects as of 24-Jan-2026
HD Live streaming from Space Station
objects crossing your sky now

STARLINK-6060

Track STARLINK-6060 now!
10-day predictions
STARLINK-6060 is classified as:


NORAD ID: 56794
Int'l Code: 2023-078AD
Perigee: 577.1 km
Apogee: 581.2 km
Inclination: 70.0 °
Period: 96.1 minutes
Semi major axis: 6950 km
RCS: Unknown
Launch date: May 31, 2023
Source: United States (US)
Launch site: AIR FORCE WESTERN TEST RANGE (AFWTR)
Your satellite tracking list
Your tracking list is empty




NASA's NSSDC Master Catalog

Two Line Element Set (TLE):
1 56794U 23078AD  26024.42533306  .00001962  00000-0  17212-3 0  9995
2 56794  69.9995  76.0430 0002993 267.0267  93.0550 14.98341142146542
Source of the keplerian elements: AFSPC